Location: Unspecified
(0.0000°N, 0.0000°E)
Time: 21:49:31
(UTC+01:00)

Iridium 84 - Visible Passes

Search period start: 20 December 2014 00:00
Search period end: 30 December 2014 00:00
Orbit: 776 x 779 km, 86.4° (Epoch: 20 December)

Date Brightness Start Highest point End Pass type
(mag) Time Alt. Az. Time Alt. Az. Time Alt. Az.
20 Dec 5.6 19:40:58 10° S 19:46:11 84° W 19:51:23 10° N visible
22 Dec 7.9 20:15:39 10° SW 20:19:41 23° W 20:23:43 10° NW visible
23 Dec 6.5 19:41:11 10° SSW 19:46:14 51° W 19:51:15 10° NNW visible
25 Dec 8.8 06:04:40 10° ENE 06:05:46 11° E 06:06:53 10° ESE visible
25 Dec 8.4 20:17:04 10° WSW 20:19:43 14° W 20:22:22 10° WNW visible
26 Dec 7.5 19:41:42 10° SSW 19:46:16 31° W 19:50:49 10° NNW visible
28 Dec 8.3 06:02:20 10° NE 06:05:48 18° E 06:09:16 10° SE visible
29 Dec 8.3 19:42:37 10° SW 19:46:17 20° W 19:49:57 10° NW visible
